Temp
-12 -12 -12 -12 -12 -12 -12 -12 -12 -12 -12 -12 -12 -11 -11 -11 -11 -11 -11 -11 -11 -11 -11 -11 -11 -11 -11 -11 -11 -11 -11 -11 -11 -11 -11 -11 -11 -11 -11 -11 -11 -11 -11 -11 -11 -11 -11 -11 -12 -12 -11 -11
-12 -12 -12 -12 -12 -12 -12 -12 -12 -12 -12 -12 -12 -12 -11 -11 -11 -11 -11 -11 -11 -11 -11 -11 -11 -11 -11 -11 -11 -11 -11 -11 -11 -11 -11 -11 -11 -11 -11 -11 -11 -11 -11 -11 -11 -11 -11 -12 -12 -12 -12 -12
-12 -12 -12 -12 -12 -12 -12 -12 -13 -13 -12 -12 -12 -12 -12 -12 -12 -12 -12 -12 -12 -11 -11 -11 -11 -11 -11 -11 -11 -11 -11 -11 -11 -11 -11 -11 -11 -11 -11 -11 -11 -11 -11 -11 -11 -11 -12 -12 -12 -12 -12 -12
-13 -13 -12 -12 -12 -12 -12 -13 -13 -13 -13 -12 -12 -12 -12 -12 -12 -12 -12 -12 -12 -12 -11 -11 -11 -11 -11 -11 -12 -12 -11 -11 -11 -11 -11 -11 -11 -11 -11 -11 -11 -11 -11 -11 -11 -11 -11 -12 -12 -12 -12 -12
-13 -13 -13 -13 -13 -13 -13 -13 -13 -13 -13 -13 -12 -12 -12 -12 -12 -12 -12 -12 -12 -12 -12 -12 -11 -11 -12 -12 -12 -12 -12 -11 -11 -11 -11 -11 -11 -11 -11 -11 -11 -11 -11 -11 -11 -11 -11 -11 -12 -12 -12 -12
-13 -13 -13 -13 -13 -13 -13 -13 -13 -13 -13 -13 -13 -13 -12 -12 -12 -12 -12 -12 -12 -12 -12 -12 -12 -12 -12 -12 -12 -12 -12 -12 -12 -11 -11 -11 -11 -11 -11 -11 -11 -11 -11 -11 -11 -11 -11 -11 -11 -12 -12 -12
-13 -13 -13 -13 -13 -13 -13 -13 -13 -13 -13 -13 -13 -13 -13 -12 -12 -12 -12 -12 -12 -12 -12 -12 -12 -12 -12 -12 -12 -12 -12 -12 -12 -12 -11 -11 -11 -11 -11 -11 -11 -11 -11 -11 -11 -11 -11 -11 -11 -12 -12 -12
-13 -13 -13 -13 -13 -13 -13 -13 -14 -14 -13 -13 -13 -13 -13 -13 -13 -13 -12 -12 -12 -12 -12 -12 -12 -12 -12 -12 -12 -12 -12 -12 -12 -12 -12 -11 -11 -11 -11 -11 -11 -11 -11 -11 -11 -11 -11 -11 -11 -12 -12 -12
-14 -14 -13 -13 -13 -14 -14 -14 -14 -14 -14 -13 -13 -13 -13 -13 -13 -13 -13 -13 -12 -12 -12 -12 -12 -12 -12 -12 -12 -12 -12 -12 -12 -12 -12 -12 -12 -12 -12 -11 -11 -11 -11 -11 -11 -11 -12 -12 -12 -12 -12 -12
-14 -14 -14 -14 -14 -14 -14 -14 -14 -14 -14 -14 -13 -13 -13 -13 -13 -13 -13 -13 -13 -13 -12 -12 -12 -12 -12 -12 -12 -12 -12 -12 -12 -12 -12 -12 -12 -12 -12 -12 -12 -11 -11 -11 -12 -12 -12 -12 -12 -12 -12 -12
-14 -14 -14 -14 -14 -14 -14 -14 -14 -14 -14 -14 -14 -13 -13 -13 -13 -13 -13 -13 -13 -13 -13 -13 -12 -12 -12 -12 -12 -12 -12 -12 -12 -12 -12 -12 -12 -12 -12 -12 -12 -12 -12 -12 -12 -12 -12 -12 -12 -12 -12 -12
-15 -14 -14 -14 -14 -14 -14 -14 -14 -14 -14 -14 -14 -14 -13 -13 -13 -13 -13 -13 -13 -13 -13 -13 -13 -13 -13 -13 -13 -13 -13 -13 -12 -12 -12 -12 -12 -12 -12 -12 -12 -12 -12 -12 -12 -12 -12 -12 -12 -12 -12 -12
-15 -15 -14 -14 -14 -14 -14 -14 -14 -14 -14 -14 -14 -14 -14 -13 -13 -13 -13 -13 -13 -13 -13 -13 -13 -13 -13 -13 -13 -13 -13 -13 -13 -13 -13 -13 -13 -13 -12 -12 -12 -12 -12 -12 -12 -12 -12 -12 -12 -12 -12 -12
-15 -15 -15 -14 -14 -14 -14 -14 -14 -14 -14 -14 -14 -14 -14 -14 -14 -13 -13 -14 -13 -13 -13 -13 -13 -13 -13 -13 -13 -13 -13 -13 -13 -13 -13 -13 -13 -13 -13 -13 -13 -13 -13 -13 -12 -12 -12 -12 -12 -13 -13 -13
-15 -15 -15 -15 -15 -14 -14 -14 -14 -14 -14 -14 -14 -14 -14 -14 -14 -14 -14 -14 -14 -14 -14 -13 -13 -13 -13 -13 -13 -13 -13 -13 -13 -13 -13 -13 -13 -13 -13 -13 -13 -13 -13 -13 -13 -13 -13 -13 -13 -13 -13 -13
-15 -15 -15 -15 -15 -14 -14 -14 -14 -14 -14 -14 -14 -14 -14 -14 -14 -14 -14 -14 -14 -14 -14 -14 -14 -14 -13 -13 -13 -13 -13 -13 -13 -13 -13 -13 -13 -13 -13 -13 -13 -13 -13 -13 -13 -13 -13 -13 -13 -13 -13 -13
-16 -15 -15 -15 -15 -15 -14 -14 -14 -14 -14 -14 -14 -14 -14 -14 -14 -14 -14 -14 -14 -14 -14 -14 -14 -14 -14 -14 -14 -14 -14 -14 -14 -14 -14 -13 -13 -13 -13 -13 -13 -13 -13 -13 -13 -13 -13 -13 -13 -13 -13 -13
-16 -15 -15 -15 -15 -15 -15 -14 -14 -14 -14 -14 -14 -14 -14 -14 -14 -14 -14 -14 -14 -14 -14 -14 -14 -14 -14 -14 -14 -14 -14 -14 -14 -14 -14 -14 -14 -13 -13 -13 -14 -14 -14 -14 -14 -14 -13 -13 -13 -13 -13 -13
-16 -16 -15 -15 -15 -15 -15 -15 -14 -14 -15 -14 -14 -14 -14 -14 -14 -14 -14 -14 -14 -14 -14 -14 -14 -14 -14 -14 -14 -14 -14 -14 -14 -14 -14 -14 -14 -14 -14 -14 -14 -14 -14 -14 -14 -14 -14 -14 -14 -14 -13 -13
-16 -16 -15 -15 -15 -15 -15 -15 -15 -15 -15 -15 -14 -14 -14 -14 -14 -15 -15 -15 -15 -15 -15 -15 -15 -15 -15 -14 -14 -15 -15 -15 -14 -14 -14 -14 -14 -14 -14 -14 -14 -14 -14 -14 -14 -14 -14 -14 -14 -14 -14 -14
-16 -16 -16 -15 -15 -15 -15 -15 -15 -15 -15 -15 -15 -14 -14 -15 -15 -15 -15 -15 -15 -15 -15 -15 -15 -15 -15 -15 -15 -15 -15 -15 -15 -15 -14 -14 -14 -14 -14 -14 -14 -14 -14 -14 -14 -14 -14 -14 -14 -14 -14 -14
-17 -16 -16 -16 -15 -15 -15 -15 -15 -15 -15 -15 -15 -14 -14 -15 -15 -15 -15 -15 -15 -15 -15 -15 -15 -15 -15 -15 -15 -15 -15 -15 -15 -15 -14 -14 -14 -15 -15 -14 -14 -14 -14 -14 -14 -14 -14 -14 -14 -14 -14 -14
-16 -16 -16 -16 -15 -15 -15 -15 -15 -15 -15 -15 -14 -14 -14 -14 -15 -15 -15 -15 -15 -15 -15 -15 -15 -15 -15 -15 -15 -15 -15 -15 -15 -15 -15 -15 -15 -15 -15 -15 -15 -15 -15 -15 -15 -15 -15 -15 -15 -15 -15 -15
-16 -16 -16 -16 -15 -15 -15 -15 -15 -15 -14 -14 -14 -14 -14 -14 -14 -15 -15 -15 -15 -15 -15 -15 -15 -15 -15 -15 -15 -15 -15 -15 -15 -15 -15 -15 -15 -15 -15 -15 -15 -15 -15 -15 -15 -15 -15 -15 -15 -15 -15 -15
-16 -16 -16 -16 -16 -15 -15 -15 -15 -15 -14 -14 -14 -14 -14 -14 -15 -15 -15 -15 -15 -15 -15 -15 -15 -15 -15 -15 -15 -15 -15 -15 -15 -15 -15 -15 -15 -15 -15 -15 -15 -15 -15 -15 -15 -15 -15 -15 -15 -15 -15 -15
-17 -17 -16 -16 -16 -16 -15 -15 -15 -15 -14 -14 -14 -14 -15 -15 -15 -15 -15 -15 -15 -15 -15 -15 -15 -15 -15 -15 -16 -15 -15 -15 -15 -15 -16 -16 -16 -15 -15 -15 -15 -15 -15 -15 -15 -15 -15 -15 -15 -15 -15 -16
-17 -17 -17 -16 -16 -16 -16 -15 -15 -15 -15 -15 -15 -15 -15 -15 -15 -15 -15 -15 -15 -16 -16 -16 -16 -16 -16 -16 -15 -15 -15 -16 -16 -16 -16 -16 -16 -15 -15 -16 -16 -15 -15 -15 -15 -16 -16 -16 -16 -16 -16 -16
-17 -17 -17 -16 -16 -16 -16 -16 -16 -15 -15 -15 -15 -15 -15 -15 -15 -15 -15 -15 -15 -15 -15 -15 -16 -16 -16 -16 -16 -16 -16 -16 -16 -16 -16 -16 -16 -16 -16 -16 -16 -16 -16 -16 -16 -16 -16 -16 -16 -16 -16 -16
-17 -17 -17 -17 -16 -16 -16 -16 -16 -16 -16 -16 -15 -15 -15 -15 -15 -15 -15 -15 -15 -15 -15 -15 -15 -16 -16 -16 -16 -16 -16 -16 -16 -16 -16 -16 -16 -16 -16 -16 -16 -16 -16 -16 -16 -16 -16 -16 -16 -16 -16 -16
-17 -17 -17 -17 -16 -16 -16 -16 -16 -16 -16 -16 -16 -16 -16 -16 -16 -15 -16 -16 -16 -16 -16 -16 -16 -16 -16 -16 -16 -16 -16 -16 -16 -16 -16 -16 -16 -16 -16 -16 -16 -16 -16 -16 -16 -16 -16 -16 -16 -16 -17 -16
-17 -17 -17 -17 -17 -17 -17 -17 -17 -17 -17 -16 -16 -16 -16 -16 -16 -16 -16 -16 -16 -16 -16 -16 -16 -16 -16 -16 -16 -16 -16 -16 -16 -16 -16 -16 -16 -16 -16 -16 -16 -16 -16 -16 -16 -16 -16 -16 -16 -17 -17 -17
Height
5778 5779 5779 5780 5781 5781 5782 5782 5782 5783 5784 5784 5785 5786 5786 5787 5788 5788 5788 5788 5788 5788 5788 5788 5788 5787 5787 5786 5786 5785 5785 5784 5784 5783 5783 5783 5783 5783 5782 5782 5782 5782 5782 5782 5782 5782 5782 5782 5782 5782 5782 5782
5775 5776 5776 5777 5778 5779 5779 5779 5780 5780 5781 5782 5782 5783 5784 5784 5785 5785 5786 5785 5785 5786 5786 5786 5786 5785 5785 5785 5784 5784 5783 5783 5782 5782 5782 5781 5781 5781 5781 5780 5780 5780 5780 5780 5780 5780 5780 5780 5780 5780 5780 5780
5772 5772 5773 5774 5775 5776 5776 5776 5777 5777 5778 5779 5780 5780 5781 5782 5782 5783 5783 5783 5783 5783 5783 5783 5783 5783 5783 5783 5782 5782 5782 5781 5781 5780 5780 5780 5780 5779 5779 5779 5778 5778 5778 5778 5778 5778 5778 5778 5778 5778 5778 5778
5768 5769 5770 5771 5772 5773 5773 5773 5774 5775 5776 5776 5777 5777 5778 5779 5780 5780 5780 5780 5781 5781 5781 5781 5781 5781 5781 5780 5780 5780 5780 5780 5779 5779 5778 5778 5778 5778 5777 5777 5777 5776 5776 5776 5776 5776 5776 5776 5776 5776 5776 5776
5765 5766 5767 5768 5769 5770 5770 5771 5772 5772 5772 5773 5774 5775 5775 5776 5777 5777 5777 5778 5778 5778 5778 5778 5778 5779 5778 5778 5778 5778 5778 5778 5777 5777 5777 5776 5776 5776 5776 5775 5775 5775 5774 5774 5774 5774 5774 5774 5774 5774 5774 5774
5761 5762 5764 5765 5765 5767 5768 5768 5769 5769 5770 5770 5771 5772 5772 5773 5774 5774 5775 5775 5775 5776 5776 5776 5776 5776 5776 5776 5776 5776 5776 5775 5775 5775 5775 5774 5774 5774 5774 5773 5773 5773 5772 5772 5772 5772 5772 5772 5772 5772 5772 5771
5758 5759 5760 5761 5762 5764 5765 5765 5766 5766 5767 5768 5768 5769 5770 5770 5771 5771 5772 5772 5772 5773 5773 5773 5773 5773 5773 5773 5773 5774 5773 5773 5773 5773 5773 5772 5772 5772 5772 5771 5771 5771 5770 5770 5770 5770 5769 5769 5769 5769 5769 5769
5754 5756 5757 5758 5759 5760 5761 5762 5763 5763 5764 5764 5765 5766 5767 5767 5768 5768 5769 5769 5769 5770 5770 5771 5771 5771 5771 5771 5771 5771 5771 5771 5771 5771 5770 5770 5770 5770 5769 5769 5769 5769 5768 5768 5768 5767 5767 5767 5767 5767 5767 5767
5750 5752 5753 5755 5756 5757 5758 5759 5760 5760 5761 5761 5762 5763 5764 5764 5765 5765 5766 5766 5766 5767 5767 5768 5768 5768 5768 5768 5768 5768 5768 5768 5768 5768 5768 5768 5767 5767 5767 5767 5767 5766 5766 5766 5765 5765 5765 5765 5765 5765 5764 5764
5746 5748 5750 5751 5752 5753 5755 5755 5756 5757 5758 5758 5759 5760 5760 5761 5761 5762 5762 5763 5763 5764 5764 5764 5765 5765 5765 5765 5765 5765 5765 5765 5765 5765 5765 5765 5765 5765 5764 5764 5764 5764 5763 5763 5763 5763 5763 5762 5762 5762 5762 5762
5742 5744 5746 5747 5748 5750 5751 5752 5753 5754 5755 5755 5756 5756 5757 5758 5758 5759 5759 5760 5760 5760 5761 5761 5762 5762 5762 5762 5762 5762 5763 5763 5763 5762 5762 5762 5762 5762 5762 5761 5761 5761 5761 5760 5760 5760 5760 5760 5760 5759 5759 5759
5737 5740 5742 5743 5744 5746 5748 5748 5749 5750 5751 5752 5752 5753 5754 5754 5755 5755 5756 5756 5757 5757 5758 5758 5758 5759 5759 5759 5759 5759 5760 5760 5760 5760 5760 5759 5759 5759 5759 5759 5758 5758 5758 5758 5757 5757 5757 5757 5757 5757 5756 5756
5733 5736 5738 5739 5741 5742 5744 5745 5746 5747 5748 5748 5749 5750 5751 5751 5751 5752 5752 5753 5753 5754 5754 5755 5755 5755 5756 5756 5756 5756 5756 5757 5757 5757 5757 5757 5756 5756 5756 5756 5756 5755 5755 5755 5755 5754 5754 5754 5754 5754 5754 5753
5729 5731 5734 5735 5737 5739 5740 5741 5742 5743 5744 5745 5746 5747 5747 5748 5748 5748 5749 5749 5750 5750 5751 5751 5752 5752 5752 5753 5753 5753 5753 5753 5754 5754 5754 5753 5753 5753 5753 5753 5753 5753 5753 5752 5752 5752 5751 5751 5751 5751 5751 5751
5725 5727 5729 5731 5733 5735 5736 5738 5739 5740 5741 5742 5743 5743 5744 5744 5745 5745 5745 5746 5746 5747 5747 5748 5748 5748 5749 5749 5749 5750 5750 5750 5750 5750 5750 5750 5750 5750 5750 5750 5750 5750 5750 5750 5749 5749 5749 5748 5748 5748 5748 5748
5720 5722 5725 5728 5729 5731 5732 5734 5735 5736 5737 5738 5739 5740 5740 5741 5741 5741 5742 5742 5743 5743 5744 5744 5745 5745 5745 5745 5746 5746 5746 5746 5747 5747 5747 5747 5747 5747 5747 5747 5747 5747 5747 5747 5746 5746 5745 5745 5745 5745 5745 5744
5716 5719 5721 5724 5725 5727 5728 5730 5731 5732 5734 5735 5735 5736 5737 5737 5738 5738 5738 5739 5739 5740 5740 5740 5741 5741 5742 5742 5742 5742 5742 5743 5743 5743 5744 5744 5744 5744 5744 5743 5743 5743 5743 5743 5743 5743 5742 5742 5742 5741 5741 5741
5712 5715 5717 5719 5721 5723 5724 5726 5727 5729 5730 5731 5732 5732 5733 5734 5734 5734 5734 5735 5735 5736 5736 5737 5737 5738 5738 5738 5738 5738 5738 5739 5739 5740 5740 5740 5741 5740 5740 5740 5740 5740 5740 5740 5739 5739 5739 5738 5738 5738 5737 5737
5708 5711 5713 5715 5717 5718 5720 5721 5723 5724 5726 5727 5727 5728 5729 5730 5730 5730 5731 5731 5731 5732 5732 5733 5733 5734 5734 5734 5734 5734 5735 5735 5735 5736 5736 5737 5737 5737 5737 5736 5736 5736 5736 5736 5736 5735 5735 5735 5734 5734 5733 5733
5704 5706 5708 5710 5712 5714 5715 5717 5719 5720 5721 5722 5723 5724 5725 5725 5726 5726 5727 5727 5727 5728 5728 5729 5729 5730 5730 5730 5731 5731 5731 5731 5732 5732 5733 5733 5733 5733 5733 5733 5733 5732 5732 5732 5731 5731 5731 5731 5730 5730 5729 5729
5700 5702 5704 5705 5707 5709 5711 5712 5714 5715 5717 5718 5718 5719 5720 5721 5721 5722 5722 5723 5723 5724 5724 5725 5725 5726 5726 5726 5727 5727 5727 5727 5728 5729 5729 5729 5729 5729 5729 5729 5729 5729 5728 5728 5727 5727 5727 5727 5726 5726 5725 5724
5696 5698 5699 5701 5703 5705 5706 5708 5709 5711 5712 5713 5714 5715 5715 5716 5717 5718 5718 5719 5720 5720 5721 5721 5722 5722 5722 5722 5723 5723 5723 5724 5724 5725 5725 5725 5725 5725 5725 5725 5725 5725 5724 5724 5724 5723 5723 5722 5722 5721 5721 5720
5692 5694 5695 5697 5699 5701 5702 5703 5704 5706 5707 5708 5709 5710 5711 5712 5713 5714 5714 5715 5716 5717 5717 5718 5718 5718 5718 5718 5718 5719 5719 5720 5721 5721 5721 5721 5721 5721 5721 5721 5721 5721 5720 5720 5719 5719 5719 5718 5717 5717 5716 5716
5687 5689 5691 5693 5694 5696 5697 5699 5700 5701 5703 5704 5705 5706 5707 5708 5709 5710 5711 5712 5712 5713 5713 5713 5713 5714 5714 5714 5715 5715 5716 5717 5717 5717 5716 5716 5717 5717 5717 5717 5717 5716 5716 5716 5715 5715 5714 5714 5713 5712 5712 5711
5683 5685 5686 5688 5690 5691 5693 5694 5696 5697 5698 5699 5700 5701 5702 5704 5705 5706 5706 5707 5708 5708 5708 5709 5709 5709 5710 5710 5711 5712 5713 5713 5713 5712 5712 5712 5713 5713 5713 5713 5712 5712 5711 5711 5711 5710 5710 5709 5708 5708 5707 5707
5680 5681 5682 5684 5685 5687 5688 5690 5691 5692 5693 5694 5695 5696 5697 5698 5700 5701 5701 5702 5702 5702 5703 5704 5704 5705 5706 5707 5708 5708 5709 5709 5709 5708 5708 5708 5709 5709 5709 5708 5708 5707 5707 5706 5706 5706 5705 5704 5704 5703 5703 5702
5677 5678 5678 5679 5681 5682 5684 5685 5686 5687 5688 5688 5690 5691 5692 5693 5693 5694 5694 5695 5695 5696 5698 5699 5700 5701 5702 5703 5703 5704 5704 5704 5704 5704 5704 5704 5705 5705 5704 5704 5703 5703 5702 5702 5701 5701 5700 5700 5699 5699 5698 5697
5672 5673 5674 5674 5676 5677 5679 5680 5681 5682 5682 5683 5684 5685 5685 5686 5687 5687 5688 5689 5690 5692 5694 5695 5696 5697 5697 5698 5698 5699 5699 5700 5700 5700 5700 5700 5701 5700 5700 5699 5698 5698 5698 5697 5697 5696 5696 5695 5694 5693 5693 5692
5667 5667 5668 5669 5671 5672 5673 5675 5676 5676 5676 5677 5677 5678 5680 5681 5682 5683 5685 5686 5687 5689 5690 5691 5692 5692 5693 5693 5694 5695 5695 5695 5696 5696 5696 5696 5696 5695 5695 5694 5694 5694 5693 5692 5692 5691 5691 5690 5689 5689 5688 5687
5661 5662 5663 5664 5666 5668 5668 5668 5670 5670 5670 5671 5672 5674 5675 5677 5678 5679 5681 5682 5683 5684 5685 5686 5687 5688 5688 5689 5689 5690 5690 5691 5691 5691 5691 5691 5691 5690 5690 5690 5689 5689 5688 5687 5687 5687 5686 5685 5684 5684 5683 5682
5657 5658 5658 5660 5662 5664 5663 5663 5664 5664 5665 5666 5667 5668 5670 5671 5672 5674 5675 5677 5678 5679 5680 5681 5682 5683 5683 5684 5684 5684 5685 5686 5686 5686 5685 5685 5685 5685 5685 5685 5685 5684 5683 5683 5683 5682 5681 5680 5680 5679 5678 5676
Wind_Speed
33 33 32 32 32 30 28 26 25 25 25 25 24 23 22 22 22 20 18 18 17 17 17 17 16 15 14 13 12 11 11 11 11 11 12 12 13 14 15 15 15 15 15 16 16 16 16 16 17 17 17 18
33 33 32 32 32 31 29 27 26 26 26 26 25 23 23 23 23 21 20 19 18 18 18 18 17 16 15 14 13 13 12 11 11 11 11 12 12 13 14 15 16 16 16 17 17 17 18 18 18 19 19 20
34 33 33 33 32 31 30 28 27 27 26 26 25 24 23 24 24 22 21 20 20 20 20 19 19 17 16 15 14 14 13 12 11 10 10 11 12 13 13 14 15 16 17 17 18 18 19 19 20 20 21 21
34 34 34 33 32 32 31 30 28 27 27 27 26 25 24 24 24 23 22 21 21 21 21 21 20 18 17 16 15 15 15 14 12 11 10 10 11 12 13 13 14 14 16 17 18 19 19 20 21 21 22 22
35 35 34 34 33 33 33 31 28 28 28 27 26 25 25 25 25 24 23 23 22 22 22 22 21 19 18 17 16 16 16 15 14 13 11 10 11 11 12 13 13 14 14 15 16 17 19 20 21 22 22 23
36 35 34 34 34 34 33 31 30 30 29 28 27 26 26 26 26 25 24 24 24 24 23 22 22 21 19 18 17 17 17 17 16 15 14 12 12 12 12 12 13 13 14 14 15 16 17 18 20 21 22 23
36 35 35 35 35 34 34 33 32 31 29 28 28 27 26 26 27 26 26 25 25 25 25 23 22 22 21 20 18 18 18 18 18 17 16 15 13 13 12 12 12 13 13 13 14 15 16 17 18 20 21 22
36 35 35 36 36 35 35 34 33 32 30 29 29 28 27 27 27 27 27 26 27 27 26 25 24 23 22 21 20 19 19 19 19 19 18 17 16 14 14 13 13 13 13 13 13 14 15 16 17 18 19 20
38 36 36 37 37 36 36 36 35 33 32 30 30 29 28 27 28 28 28 28 28 28 28 27 25 24 23 22 22 21 20 20 20 20 20 19 18 16 16 15 15 14 14 13 13 13 14 14 15 16 17 18
40 38 37 38 38 37 37 37 36 34 33 31 30 30 29 28 28 29 29 29 29 29 29 28 27 26 25 24 23 22 22 21 21 21 21 21 20 19 18 17 17 16 15 14 14 13 13 14 14 15 16 17
42 39 38 38 39 38 38 38 36 35 34 33 32 31 30 29 29 30 30 30 30 30 30 29 29 28 26 25 25 24 23 23 22 22 22 22 22 21 20 19 19 18 17 16 15 15 14 14 15 15 16 16
43 41 39 39 40 39 39 39 37 36 35 34 33 32 31 30 30 30 31 31 31 31 31 30 30 29 28 27 26 25 25 24 24 24 23 23 24 23 22 21 20 20 19 18 17 17 16 16 16 16 16 17
44 42 40 40 41 41 40 39 38 36 36 35 34 33 32 31 30 31 31 31 32 32 32 31 31 30 30 29 28 27 26 26 25 25 25 25 25 25 24 23 22 21 21 20 20 19 18 18 18 18 18 18
45 43 41 41 42 42 41 40 38 37 36 36 35 34 33 32 31 31 32 32 32 33 33 32 32 31 31 30 29 28 27 27 26 26 26 26 26 26 26 25 24 23 23 23 22 21 20 20 20 20 20 20
46 44 43 42 42 42 42 41 39 37 37 37 36 35 34 34 32 32 33 33 33 34 34 34 33 32 32 31 30 30 29 28 27 27 27 27 27 27 28 27 26 25 25 25 24 24 23 22 22 22 22 22
46 45 44 43 43 43 43 42 39 38 37 37 36 36 35 34 34 33 34 34 35 35 35 35 34 33 33 32 32 31 30 29 28 28 27 27 28 28 29 29 28 28 27 27 26 26 25 25 25 24 24 24
46 45 44 44 43 43 43 42 40 39 38 37 37 37 36 35 35 35 35 36 36 36 36 36 35 34 34 33 33 32 31 30 30 29 28 28 28 29 29 30 30 30 29 29 29 28 28 27 27 27 27 27
46 45 45 44 44 44 44 43 41 39 38 37 37 38 37 37 36 36 36 37 37 37 37 36 36 35 35 34 34 33 33 32 31 30 29 29 29 29 30 31 31 32 31 31 31 31 31 30 30 30 30 30
46 44 44 45 44 44 44 43 41 40 39 38 38 38 38 38 37 38 38 39 39 39 38 37 37 36 36 35 35 35 34 33 32 31 30 29 29 30 31 31 32 33 33 33 33 33 33 33 33 33 33 33
44 45 44 45 45 44 44 43 42 41 40 39 39 40 40 40 39 39 39 40 40 40 39 38 38 37 37 37 36 36 35 34 32 31 31 31 31 31 31 31 32 33 35 35 35 35 35 36 36 36 35 35
38 42 45 46 45 44 43 43 42 42 41 41 41 41 42 42 41 41 41 41 41 41 40 39 39 38 38 38 38 37 36 35 33 32 32 32 32 32 31 32 32 34 35 36 37 37 37 37 38 38 38 38
36 38 42 45 46 45 44 43 43 43 43 43 43 43 44 44 43 43 42 42 42 42 42 41 40 40 40 40 39 38 37 36 34 33 34 34 34 33 32 32 33 34 35 36 37 38 39 39 39 40 40 40
43 41 42 45 46 46 45 45 44 44 45 45 45 45 45 45 45 44 44 43 43 43 43 42 42 42 42 41 41 40 38 36 35 35 36 36 36 34 33 33 34 34 35 36 37 38 39 40 40 41 41 41
45 45 45 46 47 47 46 46 45 45 45 46 46 46 47 47 46 46 45 44 44 44 45 44 44 44 43 43 42 41 39 37 37 38 39 38 37 35 34 34 35 35 36 37 37 38 38 39 40 40 40 40
41 44 45 46 47 47 47 46 46 46 46 46 47 47 48 48 47 47 46 45 46 46 46 46 45 45 44 43 42 41 39 39 40 41 41 40 38 36 36 36 37 37 37 38 38 38 38 38 39 39 39 39
36 40 43 45 46 46 47 47 47 47 47 48 48 49 49 49 48 47 47 47 47 48 48 47 46 45 44 43 43 42 41 41 43 43 43 41 39 38 38 39 39 39 39 39 39 39 38 39 39 38 38 38
35 36 41 44 45 46 46 46 47 48 49 49 50 50 51 51 50 50 50 50 50 49 48 47 46 46 45 44 44 44 44 44 44 44 44 43 41 40 40 41 41 41 41 40 40 40 40 40 39 39 39 39
38 39 40 42 44 45 46 46 47 48 49 50 51 52 52 53 53 54 53 53 52 50 49 48 47 47 46 46 46 46 45 45 45 46 46 45 43 42 42 43 43 43 42 42 42 42 41 41 41 41 40 40
41 41 40 40 42 43 45 46 47 49 50 52 53 53 54 54 54 54 53 52 51 50 49 48 48 48 48 48 47 47 47 47 47 47 47 46 46 45 45 45 45 45 44 44 44 43 43 43 43 42 42 41
44 41 40 40 40 40 43 45 46 49 51 52 53 53 53 54 54 54 52 51 50 50 49 48 48 48 48 48 49 49 49 48 48 48 48 48 48 47 47 47 47 47 47 47 46 45 45 45 44 44 43 43
47 45 42 40 39 39 40 42 44 47 50 52 53 53 54 54 54 54 53 51 50 50 49 49 49 49 49 49 50 50 50 50 49 50 50 50 49 48 48 49 49 50 50 49 48 47 47 46 46 46 46 46
Wind_Direction
245 245 244 243 244 243 241 237 235 234 235 237 238 241 244 245 246 246 247 249 251 254 257 260 262 264 267 269 271 273 278 284 288 289 288 287 284 280 275 271 267 263 259 257 255 253 252 251 250 250 250 250
245 245 243 241 241 241 239 236 234 233 234 236 238 241 244 244 244 244 244 246 248 251 253 256 259 260 263 266 267 268 271 275 280 284 285 284 283 281 277 273 269 266 262 259 257 255 253 252 251 251 251 251
244 245 243 240 239 239 238 236 234 233 234 236 237 240 244 244 243 244 244 245 247 249 251 254 255 257 259 261 263 264 266 268 271 276 280 282 281 279 277 276 272 268 265 263 260 258 256 255 253 252 252 253
243 244 242 239 238 238 237 235 235 235 235 236 237 240 243 243 242 242 243 244 245 248 250 252 253 254 256 258 260 262 263 265 267 269 274 278 279 278 275 274 272 270 267 265 263 261 260 259 257 256 256 256
242 243 242 239 237 237 237 236 235 235 235 236 237 240 243 242 240 241 241 243 244 246 248 251 252 253 254 256 258 260 262 263 264 266 269 273 276 277 275 273 270 269 268 266 265 263 262 262 261 261 260 260
243 242 242 240 238 237 237 236 236 236 235 236 237 240 243 242 240 240 241 242 244 245 246 248 251 252 253 254 256 258 260 262 263 264 265 268 271 274 276 275 272 270 269 268 267 265 264 263 263 262 262 262
244 244 242 240 238 238 237 237 236 236 236 237 237 239 242 243 240 240 241 241 243 245 246 246 248 251 252 254 255 256 258 260 263 264 264 265 267 271 274 275 274 271 268 267 266 266 265 264 263 263 263 263
246 245 244 241 239 238 238 238 237 237 237 237 238 239 242 243 240 240 241 242 243 245 246 246 247 249 251 253 255 256 257 259 261 263 264 264 265 267 270 272 273 271 268 265 264 264 264 264 264 263 263 263
249 247 246 241 238 239 239 239 238 237 237 237 238 239 241 243 240 239 241 242 243 245 246 247 247 248 250 252 254 256 258 260 261 263 264 264 264 265 267 269 270 270 269 267 264 262 262 262 262 263 263 263
251 249 248 242 238 239 239 239 238 237 237 238 238 239 241 243 241 239 240 242 243 244 246 247 248 248 249 251 253 256 258 260 261 263 264 265 265 265 266 267 269 270 270 269 267 264 263 262 262 263 263 263
252 250 248 243 239 239 239 240 239 238 238 238 238 239 240 243 242 240 240 242 243 244 246 248 249 249 250 251 253 255 257 259 261 263 264 265 265 265 265 266 267 268 269 269 267 266 265 264 264 264 265 267
252 251 248 242 239 238 239 239 240 240 239 238 239 239 240 242 243 241 240 242 243 244 246 247 249 250 251 252 253 255 257 259 261 262 263 264 264 264 264 265 266 267 268 268 267 266 265 265 266 267 268 269
252 250 246 241 238 238 238 239 240 241 240 240 239 239 240 242 243 241 240 241 243 244 246 247 249 250 251 253 254 256 258 260 261 262 263 263 263 263 263 263 264 265 266 267 266 265 264 265 265 266 266 267
250 249 245 240 238 238 237 238 240 241 241 241 240 239 240 241 243 242 240 241 243 244 246 247 248 250 251 253 254 256 258 260 262 263 263 263 263 262 262 262 262 262 263 264 265 265 264 263 263 263 264 265
248 247 244 240 238 238 237 237 239 240 241 241 240 240 240 241 243 243 241 241 242 244 245 247 248 249 251 252 254 256 258 261 263 264 265 264 263 262 260 260 259 260 261 262 263 263 263 262 262 262 263 264
246 245 242 240 239 238 237 237 239 240 241 242 241 240 241 241 243 243 242 241 241 243 245 246 247 248 250 252 254 256 258 260 263 264 266 266 264 262 260 259 258 258 258 260 261 262 262 262 262 262 263 264
244 243 241 240 240 239 237 238 238 240 242 243 243 241 241 242 243 244 242 241 241 242 244 245 247 248 249 251 253 255 257 259 262 264 266 267 267 264 261 259 257 257 257 258 259 260 260 260 260 261 262 263
244 242 240 239 239 239 238 238 239 241 243 244 244 243 242 242 243 244 243 242 241 242 243 244 246 247 249 251 253 255 257 259 261 264 267 268 268 267 264 260 257 256 256 257 258 259 259 260 260 261 263 264
242 242 240 239 239 239 239 238 239 241 243 244 244 244 243 242 243 244 244 243 242 242 242 243 245 247 248 250 252 254 256 258 261 264 266 268 269 269 267 263 260 257 256 256 257 259 260 261 262 263 264 265
241 240 240 239 239 239 239 239 240 241 243 245 245 244 244 243 243 244 244 243 243 242 242 243 244 246 248 250 252 253 255 257 260 263 266 268 270 270 269 267 264 261 258 257 257 258 260 261 263 264 265 266
240 239 239 239 239 239 239 239 240 241 243 245 245 244 244 244 243 243 244 243 243 243 243 243 244 246 248 250 252 253 255 257 259 262 265 268 269 270 270 269 267 264 261 259 258 258 259 261 262 263 264 266
243 241 240 239 239 238 238 239 240 241 242 244 245 245 244 244 244 244 244 244 244 244 244 244 245 246 248 250 251 253 255 257 260 263 265 267 268 270 271 271 269 267 265 263 261 260 260 261 262 263 264 266
247 246 244 242 241 239 239 239 240 241 242 244 246 245 245 245 246 245 245 245 245 245 246 246 246 246 248 250 251 253 255 257 261 264 265 266 267 269 271 271 271 269 267 265 264 263 262 262 263 264 265 267
247 246 245 244 243 242 241 241 241 242 244 245 247 247 246 247 247 248 247 247 247 246 246 246 247 247 248 249 251 253 255 259 262 264 265 266 267 270 271 273 273 271 269 267 266 265 265 265 265 266 267 268
246 244 244 244 244 244 243 243 243 244 245 246 247 247 247 247 248 249 249 249 248 247 246 246 247 247 248 250 252 254 257 260 262 263 264 266 268 271 273 273 274 273 271 270 268 267 267 267 267 268 269 270
249 246 245 245 245 245 245 245 245 246 246 246 247 246 246 245 246 247 247 247 247 246 246 246 247 248 249 251 254 256 258 259 260 262 264 266 269 271 273 274 274 275 274 272 271 270 270 269 270 271 272 273
250 249 247 246 246 246 246 246 245 246 246 246 246 245 244 243 243 243 243 244 245 245 245 246 247 249 250 252 254 255 256 258 259 262 264 266 269 272 273 273 274 275 275 275 274 273 272 273 273 274 275 276
248 249 249 248 248 248 247 247 247 246 246 246 245 244 243 242 242 242 243 244 244 245 246 247 248 249 250 251 253 254 256 257 259 262 264 267 270 271 271 272 274 275 277 278 277 276 276 276 276 277 278 278
243 246 248 248 249 249 248 247 247 247 246 245 245 244 244 243 243 244 245 246 247 248 249 249 249 249 250 252 253 255 256 258 260 262 265 267 268 269 271 272 273 275 277 278 279 279 279 279 279 280 281 281
238 241 244 244 246 248 249 249 248 246 245 245 246 245 245 244 244 245 246 247 248 248 249 250 250 251 252 253 254 256 257 259 261 263 265 266 267 268 270 271 272 274 275 277 280 281 281 281 281 282 282 282
238 239 240 240 241 243 247 250 251 248 246 245 246 245 245 245 245 245 245 246 247 248 249 250 250 251 252 253 254 255 257 258 260 261 263 264 266 267 268 270 271 272 274 277 280 281 282 282 282 283 283 284